This demonstration page uses our WeatherBlox Daily Observations layout. Learn more.

Left ArrowRight Arrow

Hourly Observations for October 30, 2022

Temp ( °F °C ) Dew Point ( °F °C ) Humidity (%) Winds ( mph kmh ) Pressure ( in mb ) Visibility ( mi km ) Precip ( " mm )
12:53 am 00:53 Clear 42 5.6 30 -1.1 62 62 SW 13 20 30.06 1018 10 16 0.00 0.00
1:53 am 01:53 Clear 44 6.7 30 -1.1 57 57 SW 17 28 30.03 1017 10 16 0.00 0.00
2:53 am 02:53 Clear 43 6.1 30 -1.1 60 60 SW 15 24 30.01 1016 10 16 0.00 0.00
3:53 am 03:53 Clear 45 7.2 30 -1.1 55 55 SW 15 24 29.99 1016 10 16 0.00 0.00
4:53 am 04:53 Clear 45 7.2 30 -1.1 55 55 SW 18 30 29.96 1015 10 16 0.00 0.00
5:53 am 05:53 Clear 46 7.8 30 -1.1 53 53 SW 18 30 29.95 1014 10 16 0.00 0.00
6:53 am 06:53 Clear 46 7.8 30 -1.1 53 53 SW 21 33 29.95 1014 10 16 0.00 0.00
7:53 am 07:53 Mostly Cloudy 46 7.8 30 -1.1 53 53 SW 16 26 29.97 1015 10 16 0.00 0.00
8:53 am 08:53 Sunny 47 8.3 30 -1.1 51 51 SW 18 30 29.94 1014 10 16 0.00 0.00
9:53 am 09:53 Sunny 50 10 31 -0.6 48 48 SW 25 41 29.92 1013 10 16 0.00 0.00
10:53 am 10:53 Sunny 52 11.1 31 -0.6 44 44 SW 26 43 29.90 1012 10 16 0.00 0.00
11:53 am 11:53 Sunny 57 13.9 30 -1.1 35 35 SW 24 39 29.88 1012 10 16 0.00 0.00
12:53 pm 12:53 Sunny 61 16.1 29 -1.7 29 29 WSW 33 54 29.84 1011 10 16 0.00 0.00
1:53 pm 13:53 Sunny 61 16.1 30 -1.1 31 31 WSW 28 44 29.82 1010 10 16 0.00 0.00
2:53 pm 14:53 Sunny 60 15.6 30 -1.1 32 32 WSW 35 56 29.81 1010 10 16 0.00 0.00
3:53 pm 15:53 Sunny 59 15 31 -0.6 34 34 WSW 30 48 29.80 1009 10 16 0.00 0.00
4:53 pm 16:53 Sunny 57 13.9 32 0 38 38 WSW 28 44 29.82 1010 10 16 0.00 0.00
5:53 pm 17:53 Sunny 54 12.2 32 0 43 43 SW 20 31 29.79 1009 10 16 0.00 0.00
6:53 pm 18:53 Clear 51 10.6 33 0.6 50 50 SW 16 26 29.79 1009 10 16 0.00 0.00
7:53 pm 19:53 Clear 51 10.6 34 1.1 52 52 SW 18 30 29.79 1009 10 16 0.00 0.00
8:53 pm 20:53 Clear 49 9.4 34 1.1 56 56 SW 13 20 29.79 1009 10 16 0.00 0.00
9:53 pm 21:53 Clear 50 10 34 1.1 54 54 SW 21 33 29.77 1008 10 16 0.00 0.00
10:53 pm 22:53 Clear 49 9.4 33 0.6 54 54 SSW 15 24 29.78 1008 10 16 0.00 0.00
11:53 pm 23:53 Clear 48 8.9 34 1.1 58 58 SW 10 17 29.75 1008 10 16 0.00 0.00

Powered by AerisWeather